Location: Chervonnoye
(48.6000°N, 34.4000°E)
Time: 16:22:57
(UTC+00:00)

X-37B - Pass Details

Date: 02 October 2021
Orbit: 385 x 389 km, 45.0° (Epoch: 13 October)

Event Time Altitude Azimuth Distance (km) Brightness Sun altitude
Exits shadow 01:48:14 26° 160° (SSE) 794 2.1 -19.6°
Drops below altitude 10° 01:50:12 10° 130° (SE) 1,411 3.8 -19.3°
Sets 01:52:23 0° 120° (ESE) 2,265 5.1 -18.9°
